IBE80U LEPA-LEBL

Flight info

Callsign IBE80U
Flight time 0h 34m
Altitude 18000
Route ESPOR L2 NEPAL
Aircraft A320/M-SDE3FGHIRWY/LB1

Departure

Time 2026-05-05 15:24
Airport Palma de Mallorca Airport (LEPA)

Arrival

Time 2026-05-05 15:58
Airport Josep Tarradellas Barcelona-El Prat Airport (LEBL)
Time Latitude Longitude Altitude Speed Heading
2026-05-05 15:09 39.54999 2.73441 39 ft 0 kts 164°
2026-05-05 15:17 39.55015 2.73435 37 ft 2 kts 164°
2026-05-05 15:17 39.55030 2.73428 34 ft 2 kts 156°
2026-05-05 15:17 39.55045 2.73417 37 ft 2 kts 94°
2026-05-05 15:18 39.55043 2.73404 35 ft 1 kts 61°
2026-05-05 15:18 39.55043 2.73403 35 ft 0 kts 61°
2026-05-05 15:19 39.55049 2.73418 37 ft 6 kts 60°
2026-05-05 15:19 39.55090 2.73505 38 ft 15 kts 58°
2026-05-05 15:19 39.55143 2.73617 38 ft 12 kts 59°
2026-05-05 15:19 39.55210 2.73616 38 ft 16 kts 321°
2026-05-05 15:20 39.55320 2.73523 38 ft 19 kts 329°
2026-05-05 15:20 39.55422 2.73451 37 ft 14 kts 357°
2026-05-05 15:20 39.55482 2.73528 37 ft 12 kts 59°
2026-05-05 15:20 39.55541 2.73562 38 ft 11 kts 338°
2026-05-05 15:21 39.55622 2.73503 38 ft 14 kts 340°
2026-05-05 15:21 39.55702 2.73599 38 ft 19 kts 58°
2026-05-05 15:21 39.55777 2.73760 38 ft 22 kts 59°
2026-05-05 15:21 39.55859 2.73934 38 ft 23 kts 58°
2026-05-05 15:22 39.55947 2.74119 38 ft 25 kts 58°
2026-05-05 15:22 39.56034 2.74303 38 ft 23 kts 59°
2026-05-05 15:22 39.56111 2.74445 38 ft 17 kts 36°
2026-05-05 15:22 39.56194 2.74428 38 ft 11 kts 324°
2026-05-05 15:23 39.56243 2.74349 38 ft 12 kts 283°
2026-05-05 15:23 39.56222 2.74254 38 ft 11 kts 238°
2026-05-05 15:23 39.56135 2.74071 38 ft 53 kts 239°
2026-05-05 15:23 39.55820 2.73404 38 ft 117 kts 238°
2026-05-05 15:24 39.55302 2.72304 42 ft 167 kts 239°
2026-05-05 15:24 39.54692 2.70979 570 ft 172 kts 238°
2026-05-05 15:24 39.54071 2.69637 1292 ft 175 kts 237°
2026-05-05 15:24 39.53372 2.68218 1604 ft 201 kts 236°
2026-05-05 15:25 39.52583 2.66669 2242 ft 207 kts 235°
2026-05-05 15:25 39.51793 2.65090 3032 ft 211 kts 236°
2026-05-05 15:25 39.50993 2.63478 3798 ft 215 kts 236°
2026-05-05 15:25 39.50188 2.61867 4595 ft 217 kts 235°
2026-05-05 15:26 39.49339 2.60236 5347 ft 220 kts 234°
2026-05-05 15:26 39.48475 2.58594 6134 ft 222 kts 235°
2026-05-05 15:26 39.47607 2.56932 6882 ft 224 kts 235°
2026-05-05 15:26 39.46742 2.55258 7652 ft 224 kts 235°
2026-05-05 15:27 39.45873 2.53576 8435 ft 225 kts 236°
2026-05-05 15:27 39.45108 2.51805 9177 ft 230 kts 251°
2026-05-05 15:27 39.45014 2.49695 9590 ft 253 kts 280°
2026-05-05 15:27 39.45854 2.47580 9912 ft 282 kts 313°
2026-05-05 15:28 39.47514 2.46093 10347 ft 302 kts 325°
2026-05-05 15:28 39.49371 2.44594 10539 ft 326 kts 323°
2026-05-05 15:28 39.51324 2.42906 10729 ft 349 kts 322°
2026-05-05 15:28 39.53386 2.41061 10915 ft 370 kts 322°
2026-05-05 15:29 39.55639 2.39363 11447 ft 382 kts 335°
2026-05-05 15:29 39.58171 2.38223 12093 ft 388 kts 338°
2026-05-05 15:29 39.60750 2.37149 12782 ft 391 kts 339°
2026-05-05 15:29 39.63329 2.36116 13433 ft 395 kts 339°
2026-05-05 15:30 39.65968 2.35075 14072 ft 398 kts 339°
2026-05-05 15:30 39.68629 2.34025 14669 ft 401 kts 338°
2026-05-05 15:30 39.71306 2.32956 15274 ft 404 kts 338°
2026-05-05 15:30 39.73998 2.31867 15864 ft 407 kts 337°
2026-05-05 15:31 39.76706 2.30763 16456 ft 410 kts 337°
2026-05-05 15:31 39.79437 2.29646 17059 ft 413 kts 337°
2026-05-05 15:31 39.82186 2.28518 17630 ft 416 kts 336°
2026-05-05 15:31 39.84959 2.27379 17902 ft 418 kts 336°
2026-05-05 15:32 39.87727 2.26241 17959 ft 430 kts 336°
2026-05-05 15:32 39.90622 2.25047 17957 ft 440 kts 336°
2026-05-05 15:32 39.93554 2.23844 17956 ft 443 kts 336°
2026-05-05 15:32 39.96499 2.22643 17955 ft 444 kts 336°
2026-05-05 15:33 39.99446 2.21442 17954 ft 444 kts 336°
2026-05-05 15:33 40.02392 2.20240 17969 ft 444 kts 337°
2026-05-05 15:33 40.05343 2.19034 17956 ft 444 kts 337°
2026-05-05 15:33 40.08296 2.17827 17961 ft 445 kts 337°
2026-05-05 15:34 40.11208 2.16633 17958 ft 445 kts 336°
2026-05-05 15:34 40.14158 2.15416 17963 ft 445 kts 336°
2026-05-05 15:34 40.17107 2.14193 17963 ft 445 kts 336°
2026-05-05 15:34 40.20055 2.12970 17957 ft 445 kts 336°
2026-05-05 15:35 40.23007 2.11747 17959 ft 445 kts 336°
2026-05-05 15:35 40.25956 2.10527 17976 ft 445 kts 336°
2026-05-05 15:35 40.28910 2.09302 17973 ft 445 kts 336°
2026-05-05 15:35 40.31860 2.08080 17972 ft 445 kts 336°
2026-05-05 15:36 40.34815 2.06856 17972 ft 445 kts 336°
2026-05-05 15:36 40.37766 2.05632 17964 ft 445 kts 336°
2026-05-05 15:36 40.40721 2.04408 17962 ft 445 kts 336°
2026-05-05 15:36 40.43637 2.03199 17964 ft 445 kts 336°
2026-05-05 15:37 40.46585 2.01975 17973 ft 439 kts 336°
2026-05-05 15:37 40.49433 2.00801 17176 ft 422 kts 337°
2026-05-05 15:37 40.52253 1.99629 15675 ft 432 kts 338°
2026-05-05 15:37 40.55106 1.98436 15217 ft 423 kts 338°
2026-05-05 15:38 40.57857 1.97293 15093 ft 407 kts 338°
2026-05-05 15:38 40.60506 1.96193 14966 ft 391 kts 338°
2026-05-05 15:38 40.63053 1.95131 14843 ft 377 kts 338°
2026-05-05 15:38 40.65516 1.94153 14699 ft 366 kts 342°
2026-05-05 15:39 40.68002 1.93752 14463 ft 364 kts 355°
2026-05-05 15:39 40.70520 1.94081 14226 ft 365 kts
2026-05-05 15:39 40.72945 1.95122 13790 ft 370 kts 22°
2026-05-05 15:39 40.75218 1.96719 13341 ft 368 kts 27°
2026-05-05 15:40 40.77451 1.98338 12893 ft 365 kts 27°
2026-05-05 15:40 40.79672 1.99936 12423 ft 362 kts 27°
2026-05-05 15:40 40.81881 2.01515 11977 ft 359 kts 26°
2026-05-05 15:40 40.84071 2.03078 11533 ft 356 kts 27°
2026-05-05 15:41 40.86239 2.04626 11204 ft 350 kts 27°
2026-05-05 15:41 40.88313 2.06114 11044 ft 328 kts 27°
2026-05-05 15:41 40.90252 2.07511 10606 ft 318 kts 26°
2026-05-05 15:41 40.92177 2.08897 10022 ft 313 kts 27°
2026-05-05 15:42 40.94079 2.10288 9618 ft 311 kts 27°
2026-05-05 15:42 40.95943 2.11682 9407 ft 306 kts 28°
2026-05-05 15:42 40.97787 2.13074 9276 ft 305 kts 28°
2026-05-05 15:42 40.99624 2.14465 9144 ft 304 kts 28°
2026-05-05 15:43 41.01459 2.15840 8912 ft 301 kts 27°
2026-05-05 15:43 41.03293 2.17164 8528 ft 299 kts 26°
2026-05-05 15:43 41.05123 2.18459 8150 ft 297 kts 26°
2026-05-05 15:43 41.06942 2.19742 7777 ft 295 kts 26°
2026-05-05 15:44 41.08721 2.21001 7408 ft 293 kts 26°
2026-05-05 15:44 41.10512 2.22273 7037 ft 291 kts 27°
2026-05-05 15:44 41.12287 2.23538 6677 ft 288 kts 26°
2026-05-05 15:44 41.14046 2.24793 6319 ft 286 kts 26°
2026-05-05 15:45 41.15789 2.26040 5936 ft 284 kts 26°
2026-05-05 15:45 41.17520 2.27279 5542 ft 281 kts 26°
2026-05-05 15:45 41.19235 2.28504 5157 ft 279 kts 26°
2026-05-05 15:45 41.20937 2.29719 4964 ft 277 kts 26°
2026-05-05 15:46 41.22641 2.30937 4968 ft 279 kts 26°
2026-05-05 15:46 41.24350 2.32164 4970 ft 279 kts 26°
2026-05-05 15:46 41.26036 2.33379 4970 ft 280 kts 26°
2026-05-05 15:46 41.27739 2.34606 4704 ft 277 kts 26°
2026-05-05 15:47 41.29429 2.35819 4278 ft 275 kts 26°
2026-05-05 15:47 41.30526 2.36724 4003 ft 275 kts 34°
2026-05-05 15:47 41.32365 2.39015 3490 ft 273 kts 50°
2026-05-05 15:47 41.33425 2.41108 3068 ft 273 kts 61°
2026-05-05 15:48 41.34227 2.43394 2715 ft 271 kts 65°
2026-05-05 15:48 41.34998 2.45662 2832 ft 270 kts 64°
2026-05-05 15:48 41.35769 2.47923 3004 ft 273 kts 64°
2026-05-05 15:48 41.36559 2.50228 3046 ft 274 kts 64°
2026-05-05 15:49 41.37349 2.52534 3047 ft 273 kts 64°
2026-05-05 15:49 41.38139 2.54842 3048 ft 274 kts 64°
2026-05-05 15:49 41.38933 2.57143 3047 ft 273 kts 63°
2026-05-05 15:49 41.39957 2.59162 3044 ft 254 kts 42°
2026-05-05 15:50 41.41359 2.60409 3045 ft 237 kts 18°
2026-05-05 15:50 41.42947 2.60689 3044 ft 229 kts 347°
2026-05-05 15:50 41.44369 2.59856 3043 ft 224 kts 316°
2026-05-05 15:50 41.45214 2.58202 3055 ft 220 kts 285°
2026-05-05 15:51 41.45287 2.56192 3042 ft 220 kts 258°
2026-05-05 15:51 41.44763 2.54277 3038 ft 221 kts 248°
2026-05-05 15:51 41.44192 2.52372 3020 ft 221 kts 249°
2026-05-05 15:51 41.43631 2.50467 3019 ft 221 kts 249°
2026-05-05 15:52 41.43052 2.48569 3017 ft 221 kts 248°
2026-05-05 15:52 41.42464 2.46682 3014 ft 221 kts 249°
2026-05-05 15:52 41.41889 2.44790 2988 ft 220 kts 249°
2026-05-05 15:52 41.41340 2.42887 2662 ft 220 kts 251°
2026-05-05 15:53 41.40832 2.41002 2392 ft 218 kts 252°
2026-05-05 15:53 41.40312 2.39099 2307 ft 220 kts 249°
2026-05-05 15:53 41.39708 2.37225 2335 ft 221 kts 247°
2026-05-05 15:53 41.39075 2.35360 2307 ft 221 kts 247°
2026-05-05 15:54 41.38449 2.33495 2295 ft 221 kts 247°
2026-05-05 15:54 41.37818 2.31639 2321 ft 215 kts 247°
2026-05-05 15:54 41.37221 2.29904 2330 ft 198 kts 246°
2026-05-05 15:54 41.36672 2.28286 2288 ft 186 kts 249°
2026-05-05 15:55 41.36158 2.26734 2315 ft 181 kts 249°
2026-05-05 15:55 41.35641 2.25205 2286 ft 182 kts 247°
2026-05-05 15:55 41.35117 2.23705 2160 ft 181 kts 248°
2026-05-05 15:55 41.34593 2.22177 1961 ft 182 kts 248°
2026-05-05 15:56 41.34093 2.20662 1919 ft 174 kts 248°
2026-05-05 15:56 41.33600 2.19237 1680 ft 165 kts 246°
2026-05-05 15:56 41.33120 2.17856 1315 ft 160 kts 249°
2026-05-05 15:56 41.32691 2.16557 1096 ft 147 kts 245°
2026-05-05 15:57 41.32275 2.15341 865 ft 140 kts 245°
2026-05-05 15:57 41.31864 2.14162 656 ft 140 kts 248°
2026-05-05 15:57 41.31465 2.12992 456 ft 138 kts 248°
2026-05-05 15:57 41.31069 2.11829 292 ft 138 kts 250°
2026-05-05 15:58 41.30674 2.10682 119 ft 139 kts 250°
2026-05-05 15:58 41.30287 2.09541 19 ft 124 kts 246°
2026-05-05 15:58 41.29998 2.08695 23 ft 76 kts 246°
2026-05-05 15:58 41.29838 2.08312 22 ft 26 kts 208°
2026-05-05 15:59 41.29736 2.08220 19 ft 13 kts 215°
2026-05-05 15:59 41.29665 2.08184 17 ft 9 kts 192°
2026-05-05 15:59 41.29655 2.08178 17 ft 0 kts 206°
2026-05-05 15:59 41.29649 2.08174 17 ft 6 kts 206°
2026-05-05 16:00 41.29601 2.08079 17 ft 14 kts 243°
2026-05-05 16:00 41.29554 2.07948 17 ft 17 kts 246°
2026-05-05 16:00 41.29502 2.07817 17 ft 13 kts 214°
2026-05-05 16:00 41.29422 2.07844 16 ft 12 kts 155°
2026-05-05 16:01 41.29346 2.07890 17 ft 12 kts 155°
2026-05-05 16:01 41.29275 2.07934 21 ft 10 kts 154°
2026-05-05 16:01 41.29221 2.07985 19 ft 7 kts 154°
2026-05-05 16:01 41.29181 2.08009 20 ft 4 kts 156°
2026-05-05 16:02 41.29173 2.08013 19 ft 0 kts 156°